• In Austria
  • List of Countries
  • For 7 days
  • Water Temperature
  • Satellite Maps
  • Weather Map
  • News
  • Weather Widgets
  • user-avatar
    Login

    Hourly Weather Limanowa

    Today, 21 May, Monday

    Time Temperature Precipitation Wind Pressure Humidity
    00:00 +9°C° 0 mm 1 mps 727 mmHg 91%
    01:00 +9°C° 0 mm 1 mps 727 mmHg 92%
    02:00 +8°C° 0 mm 1 mps 727 mmHg 92%
    03:00 +8°C° 0 mm 1 mps 727 mmHg 93%
    04:00 +8°C° 0 mm 1 mps 727 mmHg 93%
    05:00 +8°C° 0 mm 2 mps 727 mmHg 87%
    06:00 +10°C° 0 mm 2 mps 727 mmHg 81%
    07:00 +12°C° 0 mm 3 mps 727 mmHg 75%
    08:00 +14°C° 0 mm 3 mps 727 mmHg 69%
    09:00 +15°C° 0 mm 4 mps 727 mmHg 63%
    10:00 +17°C° 0 mm 5 mps 727 mmHg 56%
    11:00 +17°C° 0.1 mm 5 mps 726 mmHg 57%
    12:00 +19°C° 0.1 mm 5 mps 726 mmHg 58%
    13:00 +19°C° 0.1 mm 5 mps 726 mmHg 58%
    14:00 +19°C° 0.2 mm 5 mps 725 mmHg 62%
    15:00 +17°C° 0.2 mm 5 mps 725 mmHg 66%
    16:00 +18°C° 0.2 mm 4 mps 725 mmHg 70%
    17:00 +15°C° 0.1 mm 4 mps 724 mmHg 76%
    18:00 +14°C° 0.1 mm 3 mps 724 mmHg 81%
    19:00 +14°C° 0.1 mm 2 mps 724 mmHg 86%
    20:00 +13°C° 0 mm 2 mps 724 mmHg 88%
    21:00 +12°C° 0 mm 2 mps 724 mmHg 90%
    22:00 +10°C° 0 mm 2 mps 724 mmHg 92%
    23:00 +10°C° 0 mm 1 mps 724 mmHg 92%

    Tomorrow, 22 May, Tuesday

    Time Temperature Precipitation Wind Pressure Humidity
    00:00 +10°C° 0 mm 1 mps 723 mmHg 93%
    01:00 +9°C° 0 mm 1 mps 723 mmHg 94%
    02:00 +9°C° 0 mm 1 mps 723 mmHg 94%
    03:00 +9°C° 0 mm 1 mps 723 mmHg 94%
    04:00 +9°C° 0 mm 1 mps 723 mmHg 94%
    05:00 +11°C° 0 mm 1 mps 723 mmHg 89%
    06:00 +13°C° 0 mm 1 mps 723 mmHg 83%
    07:00 +15°C° 0 mm 1 mps 723 mmHg 78%
    08:00 +18°C° 0.1 mm 1 mps 724 mmHg 71%
    09:00 +20°C° 0.1 mm 1 mps 724 mmHg 64%
    10:00 +22°C° 0.1 mm 1 mps 724 mmHg 57%
    11:00 +22°C° 0.6 mm 1 mps 724 mmHg 59%
    12:00 +23°C° 0.6 mm 1 mps 724 mmHg 61%
    13:00 +23°C° 0.6 mm 1 mps 724 mmHg 63%
    14:00 +23°C° 0.6 mm 1 mps 724 mmHg 64%
    15:00 +23°C° 0.6 mm 1 mps 723 mmHg 65%
    16:00 +23°C° 0.6 mm 1 mps 723 mmHg 66%
    17:00 +21°C° 0.2 mm 1 mps 723 mmHg 71%
    18:00 +20°C° 0.2 mm 1 mps 723 mmHg 77%
    19:00 +18°C° 0.2 mm 1 mps 723 mmHg 83%
    20:00 +16°C° 0 mm 1 mps 723 mmHg 85%
    21:00 +15°C° 0 mm 1 mps 724 mmHg 88%
    22:00 +14°C° 0 mm 1 mps 724 mmHg 91%
    23:00 +14°C° 0 mm 1 mps 724 mmHg 91%

    Day after tomorrow, 23 May, Wednesday

    Time Temperature Precipitation Wind Pressure Humidity
    00:00 +14°C° 0 mm 1 mps 724 mmHg 92%
    01:00 +13°C° 0 mm 1 mps 724 mmHg 92%
    02:00 +13°C° 0 mm 1 mps 724 mmHg 92%
    03:00 +13°C° 0 mm 1 mps 724 mmHg 93%
    04:00 +12°C° 0 mm 1 mps 724 mmHg 93%
    05:00 +14°C° 0 mm 1 mps 724 mmHg 89%
    06:00 +16°C° 0 mm 1 mps 725 mmHg 85%
    07:00 +19°C° 0 mm 1 mps 725 mmHg 81%
    08:00 +20°C° 0.2 mm 1 mps 726 mmHg 76%
    09:00 +22°C° 0.2 mm 1 mps 726 mmHg 72%
    10:00 +23°C° 0.2 mm 2 mps 726 mmHg 67%
    11:00 +23°C° 1.1 mm 2 mps 726 mmHg 68%
    12:00 +23°C° 1.1 mm 2 mps 726 mmHg 68%
    13:00 +24°C° 1.1 mm 2 mps 725 mmHg 69%
    14:00 +24°C° 0.5 mm 2 mps 725 mmHg 70%
    15:00 +24°C° 0.5 mm 1 mps 725 mmHg 70%
    16:00 +24°C° 0.5 mm 1 mps 725 mmHg 70%
    17:00 +22°C° 0.5 mm 1 mps 725 mmHg 76%
    18:00 +20°C° 0.5 mm 2 mps 725 mmHg 82%
    19:00 +18°C° 0.5 mm 2 mps 725 mmHg 88%
    20:00 +17°C° 0.7 mm 2 mps 725 mmHg 90%
    21:00 +18°C° 0.7 mm 1 mps 725 mmHg 92%
    22:00 +16°C° 0.7 mm 1 mps 725 mmHg 94%
    23:00 +15°C° 0.2 mm 1 mps 725 mmHg 94%

    24 May, Thursday

    Time Temperature Precipitation Wind Pressure Humidity
    00:00 +15°C° 0.2 mm 1 mps 725 mmHg 95%
    01:00 +15°C° 0.2 mm 1 mps 725 mmHg 95%
    02:00 +15°C° 0 mm 1 mps 725 mmHg 95%
    03:00 +14°C° 0 mm 1 mps 725 mmHg 96%
    04:00 +14°C° 0 mm 1 mps 725 mmHg 96%
    05:00 +15°C° 0 mm 1 mps 725 mmHg 94%
    06:00 +16°C° 0 mm 2 mps 725 mmHg 92%
    07:00 +18°C° 0 mm 2 mps 725 mmHg 91%
    08:00 +19°C° 0.1 mm 2 mps 726 mmHg 86%
    09:00 +20°C° 0.1 mm 2 mps 726 mmHg 82%
    10:00 +21°C° 0.1 mm 3 mps 726 mmHg 78%
    11:00 +21°C° 0.3 mm 3 mps 726 mmHg 76%
    12:00 +22°C° 0.3 mm 3 mps 725 mmHg 74%
    13:00 +22°C° 0.3 mm 4 mps 725 mmHg 72%
    14:00 +22°C° 0.3 mm 4 mps 725 mmHg 73%
    15:00 +22°C° 0.3 mm 4 mps 725 mmHg 73%
    16:00 +22°C° 0.3 mm 4 mps 725 mmHg 74%
    17:00 +21°C° 0.3 mm 3 mps 725 mmHg 79%
    18:00 +20°C° 0.3 mm 3 mps 725 mmHg 85%
    19:00 +18°C° 0.3 mm 3 mps 725 mmHg 90%
    20:00 +18°C° 0.3 mm 2 mps 725 mmHg 92%
    21:00 +17°C° 0.3 mm 2 mps 725 mmHg 94%
    22:00 +16°C° 0.3 mm 2 mps 725 mmHg 96%
    23:00 +15°C° 0 mm 2 mps 725 mmHg 97%

    25 May, Friday

    Time Temperature Precipitation Wind Pressure Humidity
    00:00 +15°C° 0 mm 2 mps 725 mmHg 97%
    01:00 +15°C° 0 mm 2 mps 725 mmHg 97%
    02:00 +14°C° 0 mm 2 mps 725 mmHg 97%
    03:00 +14°C° 0 mm 2 mps 725 mmHg 97%
    04:00 +14°C° 0 mm 1 mps 725 mmHg 98%
    05:00 +15°C° 0 mm 2 mps 725 mmHg 95%
    06:00 +16°C° 0 mm 2 mps 725 mmHg 93%
    07:00 +16°C° 0 mm 2 mps 725 mmHg 91%
    08:00 +17°C° 0.1 mm 3 mps 726 mmHg 87%
    09:00 +18°C° 0.1 mm 3 mps 726 mmHg 83%
    10:00 +19°C° 0.1 mm 3 mps 726 mmHg 79%
    11:00 +20°C° 0.5 mm 4 mps 725 mmHg 78%
    12:00 +20°C° 0.5 mm 4 mps 725 mmHg 76%
    13:00 +21°C° 0.5 mm 4 mps 725 mmHg 74%
    14:00 +21°C° 0.5 mm 4 mps 725 mmHg 75%
    15:00 +21°C° 0.5 mm 4 mps 725 mmHg 75%
    16:00 +21°C° 0.5 mm 4 mps 725 mmHg 75%
    17:00 +20°C° 0.4 mm 3 mps 725 mmHg 79%
    18:00 +18°C° 0.4 mm 3 mps 724 mmHg 84%
    19:00 +17°C° 0.4 mm 2 mps 724 mmHg 88%
    20:00 +16°C° 0.1 mm 2 mps 724 mmHg 90%
    21:00 +16°C° 0.1 mm 2 mps 724 mmHg 92%
    22:00 +15°C° 0.1 mm 2 mps 724 mmHg 95%
    23:00 +15°C° 0 mm 2 mps 724 mmHg 95%

    26 May, Saturday

    Time Temperature Precipitation Wind Pressure Humidity
    00:00 +14°C° 0 mm 2 mps 724 mmHg 96%
    01:00 +14°C° 0 mm 2 mps 724 mmHg 97%
    02:00 +14°C° 0.1 mm 2 mps 724 mmHg 97%
    03:00 +14°C° 0.1 mm 2 mps 724 mmHg 97%
    04:00 +14°C° 0.1 mm 2 mps 724 mmHg 97%
    05:00 +15°C° 0.1 mm 2 mps 724 mmHg 96%
    06:00 +15°C° 0.1 mm 2 mps 724 mmHg 94%
    07:00 +14°C° 0.1 mm 3 mps 725 mmHg 93%
    08:00 +16°C° 0.2 mm 3 mps 725 mmHg 92%
    09:00 +16°C° 0.2 mm 3 mps 725 mmHg 90%
    10:00 +17°C° 0.2 mm 3 mps 725 mmHg 89%
    11:00 +17°C° 0.2 mm 3 mps 725 mmHg 88%
    12:00 +17°C° 0.2 mm 3 mps 725 mmHg 88%
    13:00 +18°C° 0.2 mm 3 mps 725 mmHg 88%
    14:00 +17°C° 0.3 mm 3 mps 725 mmHg 89%
    15:00 +17°C° 0.3 mm 3 mps 725 mmHg 90%
    16:00 +17°C° 0.3 mm 4 mps 724 mmHg 91%
    17:00 +17°C° 0.2 mm 3 mps 724 mmHg 92%
    18:00 +16°C° 0.2 mm 3 mps 724 mmHg 94%
    19:00 +16°C° 0.2 mm 3 mps 725 mmHg 95%
    20:00 +15°C° 0.1 mm 2 mps 725 mmHg 96%
    21:00 +15°C° 0.1 mm 2 mps 725 mmHg 96%
    22:00 +15°C° 0.1 mm 2 mps 725 mmHg 97%
    23:00 +14°C° 0 mm 2 mps 725 mmHg 97%
    Show more